[[{"header":{"parameterUnit":"m.s-1","parameterCategory":1,"la1":30.2991,"la2":30.254,"lo1":-89.0895,"lo2":-89.0444,"dy":0.0017,"dx":0.0017,"nx":28,"ny":28,"refTime":"2023-04-16T21:00:00:Z","depth":0,"parameterNumber":2,"parameterNumberName":"U-component_of_WINDS"},"data":[0,0,0,0,0,0,0,0,0,0,0,0,0,0,0,0,0,0,0,0,0,0,0,0,0,0,0,0,0,0,0,0,0,0,0,0,0,0,0,0,0,0,0,0,0,0,0,0,0,0,0,0,0,0,0,0,0,0,4.4815,4.4816,0,4.4902,4.4903,4.4904,4.4868,4.4866,4.4864,4.4862,4.4953,4.4957,4.4961,0,0,0,0,0,0,0,0,0,0,0,0,0,4.4623,4.4627,4.4815,4.4816,4.4817,4.4902,4.4903,4.4904,4.4868,4.4866,4.4863,4.4861,4.4951,4.4956,4.4962,0,0,0,0,0,0,0,0,0,0,0,0,0,4.4708,4.4628,4.4815,4.4809,4.481,4.4901,4.4903,4.4904,4.4869,4.4866,4.4863,4.486,4.495,4.4956,4.4962,4.5065,0,0,4.4982,4.4985,0,0,0,0,0,0,0,0,4.4703,4.4715,4.4809,4.481,4.4811,4.4871,4.4868,4.4958,4.487,4.4847,4.4862,4.4858,4.4928,4.4936,4.4959,4.5069,4.5073,4.4983,4.4987,4.499,4.4992,0,0,0,0,0,0,0,4.4697,4.4711,4.4849,4.4811,4.4812,4.4804,4.4813,4.4885,4.4904,4.4848,4.4846,4.4857,4.4928,4.4953,4.4961,4.5074,4.4983,4.4989,4.4993,4.4995,4.5278,4.5281,0,0,0,0,0,0,4.4691,4.4706,4.4847,4.4852,4.4748,4.481,4.482,4.4855,4.4903,4.4907,4.4859,4.4855,4.4944,4.4954,4.4964,4.5091,4.499,4.4996,4.4999,4.5274,4.5279,4.5283,0,0,0,0,0,0,4.4687,4.4704,4.4843,4.4779,4.4796,4.4817,4.4856,4.4858,4.4883,4.4911,4.4914,4.4881,4.4942,4.4955,4.5041,4.5094,4.4999,4.5005,4.527,4.5276,4.5281,4.5343,0,0,0,0,0,0,4.4681,4.4702,4.474,4.478,4.4799,4.4917,4.4859,4.4862,4.4894,4.4889,4.4933,4.4937,4.494,4.5032,4.5048,4.5101,4.501,4.5266,4.5273,4.5279,4.5337,4.535,4.5362,0,0,0,0,0,4.4675,4.4753,4.4742,4.4759,4.4847,4.492,4.4932,4.4933,4.4898,4.4938,4.4957,4.4936,4.5085,4.5041,4.5058,4.5114,4.5262,4.5271,4.5278,4.5331,4.5347,4.5361,0,0,0,0,0,0,4.4719,4.4758,4.4746,4.484,4.4877,4.4914,4.4963,4.495,4.4998,4.4991,4.4991,4.5002,4.5091,4.5111,4.5061,4.5219,4.5169,4.5181,4.5203,4.5218,4.5231,4.5225,4.5015,0,0,0,0,0,4.474,4.4795,4.4827,4.4907,4.4926,4.4942,4.4973,4.4972,4.501,4.5026,4.5051,4.509,4.5146,4.5183,4.5236,4.5339,4.535,4.5387,4.5399,4.5409,4.542,4.5481,4.5499,4.5309,4.5309,4.5309,0,0,4.4783,4.4812,4.4846,4.4916,4.4945,4.5004,4.4955,4.5018,4.5063,4.5036,4.5119,4.5139,4.5183,4.528,4.5323,4.5299,4.5475,4.542,4.5428,4.5433,4.5491,4.5509,4.5525,4.5315,4.5314,4.5313,0,0,4.4893,4.4919,4.499,4.502,4.5065,4.5075,4.5092,4.5132,4.5145,4.5229,4.5211,4.5265,4.536,4.5394,4.5423,4.5551,4.5535,4.5568,4.5634,4.5693,4.5708,4.5721,4.577,4.5788,4.5578,4.5578,4.5579,0,4.4942,4.5029,4.5028,4.5095,4.5128,4.5107,4.5181,4.521,4.527,4.5294,4.5266,4.5389,4.5416,4.5522,4.5554,4.5577,4.56,4.5563,4.5706,4.5719,4.5731,4.5778,4.5796,4.5582,4.5582,4.5582,4.5581,0,4.5089,4.515,4.5202,4.5262,4.53,4.537,4.5383,4.5422,4.5418,4.5433,4.5521,4.5554,4.5615,4.564,4.5636,4.5747,4.5731,4.5704,4.5655,4.5754,4.5798,4.5816,4.5588,4.5587,4.5586,4.5585,0,0,4.5228,4.5288,4.5308,4.5336,4.5385,4.5433,4.5504,4.5564,4.56,4.5643,4.5704,4.5788,4.5764,4.5798,4.5798,4.585,4.5954,4.5817,4.5818,4.5844,4.6083,4.6105,4.6126,4.5943,4.5946,4.5949,4.6081,0,4.5344,4.5467,4.5471,4.5584,4.5644,4.5626,4.5688,4.5726,4.5742,4.5796,4.5814,4.5875,4.5837,4.5858,4.5908,4.593,4.6002,4.592,4.6003,4.6006,4.5995,4.6148,4.617,4.6293,4.6098,4.61,4.6102,0,4.5496,4.5545,4.5665,4.5709,4.5734,4.5789,4.5847,4.5898,4.5942,4.5951,4.5991,4.5984,4.6059,4.6006,4.6112,4.6057,4.6091,4.6107,4.6112,4.6121,4.6062,4.6165,4.6332,4.6352,4.6129,4.6127,4.6125,0,4.559,4.5686,4.5771,4.5795,4.5848,4.5889,4.5913,4.5954,4.5991,4.6042,4.6067,4.6126,4.6159,4.6206,4.6217,4.6176,4.6324,4.6271,4.6336,4.6336,4.6369,4.6368,4.6547,4.6387,4.6387,4.6386,4.6386,0,4.5721,4.5796,4.5814,4.5867,4.5952,4.5956,4.6041,4.6062,4.6099,4.6158,4.6145,4.6201,4.621,4.6269,4.6278,4.6367,4.6381,4.6392,4.6394,4.6395,4.6394,4.6419,4.6412,4.6391,4.639,4.6389,4.6388,0,4.5841,4.5856,4.5948,4.5992,4.6005,4.6066,4.6104,4.6156,4.6171,4.6246,4.6264,4.6289,4.6358,4.6373,4.6454,4.646,4.6567,4.6559,4.6552,4.6552,4.6618,4.6613,4.6822,4.6852,4.6669,4.6671,4.6672,0,4.5925,4.5982,4.6033,4.6071,4.6098,4.6159,4.6198,4.6205,4.6247,4.6304,4.635,4.6417,4.6472,4.6583,4.661,4.6673,4.6668,4.6737,4.6678,4.6678,4.6674,4.6671,4.6679,4.6749,4.6751,4.6753,4.6754,0,4.6073,4.6079,4.6135,4.6195,4.6242,4.6289,4.6335,4.6367,4.6381,4.6429,4.6499,4.6541,4.6626,4.6694,4.6758,4.6785,4.6774,4.6773,4.6792,4.6794,4.679,4.6797,4.6586,4.6768,4.6767,4.6766,4.6765,4.6764,4.618,4.6232,4.6277,4.6341,4.6376,4.642,4.6472,4.6496,4.6554,4.6623,4.6624,4.6702,4.6749,4.6834,4.6865,4.6928,4.6907,4.6933,4.6941,4.6948,4.6956,4.6778,4.6939,4.6939,4.6938,4.6938,4.6938,0,4.6332,4.636,4.6419,4.6484,4.6535,4.6519,4.6569,4.6614,4.6683,4.6727,4.6781,4.6865,4.6932,4.6965,4.7032,4.7077,4.7074,4.7094,4.7093,4.71,4.6969,4.6947,4.7096,4.7096,4.7096,4.7096,4.7096,4.7096,4.6416,4.6505,4.6517,4.6624,4.6652,4.6728,4.6759,4.6801,4.6837,4.693,4.6986,4.7007,4.7048,4.7119,4.7181,4.7189,4.7216,4.7241,4.7247,4.7125,4.7109,4.7093,4.7073,4.7246,4.7246,4.7373,4.7374,4.7375]},{"header":{"parameterUnit":"m.s-1","parameterCategory":1,"la1":30.2991,"la2":30.254,"lo1":-89.0895,"lo2":-89.0444,"dy":0.0017,"dx":0.0017,"nx":28,"ny":28,"refTime":"2023-04-16T21:00:00:Z","depth":0,"parameterNumber":3,"parameterNumberName":"V-component_of_WINDS"},"data":[0,0,0,0,0,0,0,0,0,0,0,0,0,0,0,0,0,0,0,0,0,0,0,0,0,0,0,0,0,0,0,0,0,0,0,0,0,0,0,0,0,0,0,0,0,0,0,0,0,0,0,0,0,0,0,0,0,0,-3.9969,-3.9969,0,-3.9979,-3.9979,-3.9979,-3.9979,-3.9979,-3.9979,-3.9979,-3.9986,-3.9986,-3.9987,0,0,0,0,0,0,0,0,0,0,0,0,0,-3.9948,-3.9949,-3.9969,-3.9969,-3.9969,-3.9979,-3.9979,-3.9979,-3.9979,-3.9979,-3.9979,-3.9978,-3.9986,-3.9986,-3.9987,0,0,0,0,0,0,0,0,0,0,0,0,0,-3.9958,-3.9949,-3.9969,-3.997,-3.9971,-3.9979,-3.9979,-3.9979,-3.9979,-3.9979,-3.9979,-3.9978,-3.9986,-3.9986,-3.9987,-3.9994,0,0,-3.9988,-3.9988,0,0,0,0,0,0,0,0,-3.9957,-3.9958,-3.997,-3.997,-3.9971,-3.9978,-3.9975,-3.9984,-3.9979,-3.9976,-3.9979,-3.9978,-3.9983,-3.9984,-3.9986,-3.9994,-3.9994,-3.9988,-3.9989,-3.9989,-3.9989,0,0,0,0,0,0,0,-3.9956,-3.9958,-3.9973,-3.997,-3.997,-3.997,-3.9971,-3.9976,-3.998,-3.9976,-3.9976,-3.9977,-3.9983,-3.9986,-3.9986,-3.9994,-3.9988,-3.9989,-3.9989,-3.9989,-4.001,-4.001,0,0,0,0,0,0,-3.9956,-3.9957,-3.9973,-3.9973,-3.9963,-3.9971,-3.9972,-3.9975,-3.998,-3.9981,-3.9977,-3.9977,-3.9985,-3.9986,-3.9987,-3.9996,-3.9989,-3.9989,-3.999,-4.001,-4.001,-4.001,0,0,0,0,0,0,-3.9955,-3.9957,-3.9972,-3.9965,-3.9967,-3.9971,-3.9975,-3.9976,-3.9978,-3.9981,-3.9982,-3.9979,-3.9985,-3.9986,-3.9992,-3.9996,-3.9989,-3.999,-4.0009,-4.001,-4.001,-4.0013,0,0,0,0,0,0,-3.9955,-3.9957,-3.996,-3.9965,-3.9968,-3.9978,-3.9975,-3.9976,-3.9979,-3.9979,-3.9983,-3.9984,-3.9985,-3.9992,-3.9993,-3.9996,-3.999,-4.0009,-4.001,-4.001,-4.0013,-4.0014,-4.0015,0,0,0,0,0,-3.9954,-3.9959,-3.996,-3.9962,-3.9971,-3.9978,-3.998,-3.9981,-3.998,-3.9982,-3.9985,-3.9984,-3.9996,-3.9992,-3.9994,-3.9997,-4.0009,-4.0009,-4.001,-4.0013,-4.0014,-4.0015,0,0,0,0,0,0,-3.9952,-3.996,-3.9961,-3.9968,-3.9973,-3.9978,-3.9982,-3.9982,-3.9987,-3.9986,-3.9988,-3.9988,-3.9995,-3.9997,-3.9993,-4.0005,-4.0002,-4.0003,-4.0003,-4.0005,-4.0005,-4.0004,-3.9991,0,0,0,0,0,-3.9953,-3.9959,-3.9965,-3.9971,-3.9974,-3.9978,-3.9981,-3.9982,-3.9986,-3.9988,-3.9991,-3.9994,-3.9999,-4.0002,-4.0006,-4.0014,-4.0015,-4.0017,-4.0018,-4.0019,-4.0019,-4.0024,-4.0025,-4.0012,-4.0012,-4.0012,0,0,-3.9954,-3.9959,-3.9963,-3.9971,-3.9975,-3.998,-3.9979,-3.9984,-3.9989,-3.9988,-3.9995,-3.9998,-4.0002,-4.0009,-4.0012,-4.0011,-4.0023,-4.0019,-4.002,-4.002,-4.0025,-4.0026,-4.0027,-4.0013,-4.0013,-4.0013,0,0,-3.9959,-3.9964,-3.997,-3.9974,-3.9981,-3.9983,-3.9985,-3.9991,-3.9993,-4.0,-4.0,-4.0005,-4.0013,-4.0016,-4.0019,-4.0028,-4.0027,-4.0029,-4.0033,-4.0038,-4.0039,-4.004,-4.0043,-4.0044,-4.003,-4.003,-4.003,0,-3.996,-3.9969,-3.9973,-3.9979,-3.9983,-3.9985,-3.9991,-3.9995,-4.0001,-4.0004,-4.0003,-4.0014,-4.0017,-4.0025,-4.0028,-4.003,-4.0031,-4.0028,-4.0039,-4.004,-4.004,-4.0044,-4.0045,-4.003,-4.003,-4.003,-4.003,0,-3.9969,-3.9976,-3.998,-3.9988,-3.9993,-3.9999,-4.0003,-4.0007,-4.0009,-4.0012,-4.0019,-4.0024,-4.0029,-4.0032,-4.0032,-4.0041,-4.004,-4.0039,-4.0035,-4.0042,-4.0045,-4.0046,-4.0031,-4.0031,-4.0031,-4.003,0,0,-3.9972,-3.9984,-3.9985,-3.999,-3.9998,-4.0003,-4.0009,-4.0016,-4.002,-4.0025,-4.0031,-4.0038,-4.0038,-4.0041,-4.0043,-4.0047,-4.0054,-4.0045,-4.0045,-4.0047,-4.0064,-4.0064,-4.0066,-4.0054,-4.0055,-4.0055,-4.0064,0,-3.9978,-3.999,-3.9995,-4.0005,-4.0011,-4.0014,-4.002,-4.0025,-4.0029,-4.0034,-4.0038,-4.0044,-4.0042,-4.0045,-4.0049,-4.0052,-4.0058,-4.0052,-4.0059,-4.0059,-4.0057,-4.0067,-4.0067,-4.0075,-4.0065,-4.0065,-4.0065,0,-3.9986,-3.9993,-4.0004,-4.0013,-4.0016,-4.0021,-4.0028,-4.0034,-4.004,-4.0043,-4.0048,-4.0049,-4.0056,-4.0053,-4.0063,-4.0059,-4.0063,-4.0065,-4.0065,-4.0065,-4.0062,-4.0067,-4.0078,-4.0079,-4.0067,-4.0067,-4.0067,0,-3.9987,-3.9999,-4.0008,-4.0011,-4.0022,-4.0026,-4.003,-4.0036,-4.0041,-4.0047,-4.005,-4.0057,-4.006,-4.0066,-4.0069,-4.0067,-4.0079,-4.0076,-4.008,-4.008,-4.0082,-4.0082,-4.0093,-4.0085,-4.0085,-4.0085,-4.0085,0,-3.9993,-4.0,-4.0009,-4.0014,-4.0022,-4.0027,-4.0034,-4.0039,-4.0045,-4.0051,-4.0054,-4.0059,-4.0064,-4.007,-4.0073,-4.008,-4.0082,-4.0084,-4.0084,-4.0083,-4.0083,-4.0085,-4.0084,-4.0085,-4.0085,-4.0085,-4.0085,0,-3.9995,-4.0001,-4.0011,-4.0021,-4.0023,-4.0029,-4.0037,-4.0042,-4.0046,-4.0054,-4.0056,-4.0062,-4.007,-4.0074,-4.0083,-4.0085,-4.0094,-4.0094,-4.0092,-4.0092,-4.0096,-4.0096,-4.0108,-4.011,-4.0102,-4.0102,-4.0102,0,-3.9998,-4.0003,-4.0014,-4.0019,-4.0024,-4.0031,-4.0037,-4.0042,-4.0047,-4.0056,-4.006,-4.0068,-4.0075,-4.0087,-4.0092,-4.0099,-4.0099,-4.0104,-4.01,-4.0099,-4.0099,-4.0099,-4.0099,-4.0104,-4.0104,-4.0104,-4.0104,0,-4.0003,-4.0006,-4.0014,-4.0023,-4.0029,-4.0037,-4.0044,-4.0047,-4.0054,-4.006,-4.0068,-4.0074,-4.0084,-4.0091,-4.01,-4.0103,-4.0105,-4.0105,-4.0106,-4.0105,-4.0103,-4.0104,-4.0093,-4.0104,-4.0104,-4.0104,-4.0104,-4.0104,-4.0005,-4.0011,-4.002,-4.0028,-4.0035,-4.0042,-4.0048,-4.0054,-4.0061,-4.007,-4.0073,-4.0082,-4.009,-4.0101,-4.0105,-4.0112,-4.0111,-4.0113,-4.0113,-4.0114,-4.0114,-4.0103,-4.0113,-4.0113,-4.0113,-4.0113,-4.0113,0,-4.001,-4.0017,-4.0025,-4.0036,-4.0043,-4.0045,-4.0053,-4.0059,-4.0067,-4.0074,-4.0081,-4.0091,-4.0099,-4.0106,-4.0114,-4.0118,-4.0119,-4.012,-4.012,-4.0121,-4.0114,-4.0112,-4.012,-4.012,-4.012,-4.012,-4.012,-4.012,-4.0014,-4.0023,-4.0028,-4.0041,-4.0047,-4.0057,-4.0061,-4.0068,-4.0074,-4.0086,-4.0093,-4.0098,-4.0105,-4.0114,-4.0121,-4.0123,-4.0126,-4.0127,-4.0129,-4.0122,-4.0121,-4.012,-4.0118,-4.0127,-4.0127,-4.0135,-4.0135,-4.0135]}]]